EW1390 Weather Reports


time (UTC)temp
C
wind
direction
speed
KPH
gust
KPH
rain 1hr
cm
rain 24hr
cm
rain mn
cm
humidity
%
barometer
mb
20260510070047 15 338 0.0 0.0 0.00 0.00 0.00 87 1005.4
20260510064605 15 338 0.0 0.0 0.00 0.00 0.00 86 1005.4
20260510063051 15 338 0.0 0.0 0.00 0.00 0.00 86 1005.3
20260510061545 15 338 0.0 0.0 0.00 0.00 0.00 85 1005.3
20260510060053 16 338 0.0 0.0 0.00 0.00 0.00 85 1005.3
20260510054545 16 338 0.0 0.0 0.00 0.00 0.00 84 1005.3
20260510053044 16 338 0.0 0.0 0.00 0.00 0.00 84 1005.2
20260510051553 16 338 0.0 0.0 0.00 0.00 0.00 83 1005.3
20260510050043 17 338 0.0 0.0 0.00 0.00 0.00 82 1005.3
20260510044543 17 338 0.0 0.0 0.00 0.00 0.00 82 1005.1
20260510043048 17 338 0.0 0.0 0.00 0.00 0.00 81 1005.1
20260510041557 18 338 0.0 0.0 0.00 0.00 0.00 79 1005.2
20260510040044 18 338 0.0 3.2 0.00 0.00 0.00 78 1005.1
20260510034540 18 338 0.0 1.6 0.00 0.00 0.00 77 1005.0
20260510033039 19 338 0.0 0.0 0.00 0.00 0.00 74 1004.7
20260510031539 20 338 0.0 0.0 0.00 0.00 0.00 72 1004.7
20260510030046 21 338 0.0 0.0 0.00 0.00 0.00 69 1004.5
20260510024550 22 338 0.0 0.0 0.00 0.00 0.00 66 1004.5
20260510023036 23 338 0.0 0.0 0.00 0.00 0.00 61 1004.5
20260510021536 25 338 0.0 1.6 0.00 0.00 0.00 56 1004.4
20260510020035 25 240 0.0 3.2 0.00 0.00 0.00 52 1004.4
20260510014635 26 240 0.0 6.4 0.00 0.00 0.00 49 1004.3
20260510013034 26 246 0.0 8.0 0.00 0.00 0.00 45 1004.3
20260510011537 27 246 0.0 8.0 0.00 0.00 0.00 42 1004.3
20260510010043 27 244 1.6 8.0 0.00 0.00 0.00 42 1004.3
20260510004531 28 248 0.0 3.2 0.00 0.00 0.00 44 1004.4
20260510003032 28 227 0.0 6.4 0.00 0.00 0.00 42 1004.3
20260510001528 28 248 0.0 8.0 0.00 0.00 0.00 46 1004.3
20260510000027 27 234 0.0 8.0 0.00 0.00 0.00 46 1004.3
20260509234526 28 308 1.6 6.4 0.00 0.00 0.00 47 1004.4
20260509233025 28 226 3.2 11.3 0.00 0.00 0.00 45 1004.5
20260509231530 28 248 1.6 6.4 0.00 0.00 0.00 46 1004.5
20260509230024 28 9 3.2 11.3 0.00 0.00 0.00 48 1004.5
20260509224520 28 219 0.0 11.3 0.00 0.00 0.00 49 1004.6
20260509223021 28 99 0.0 6.4 0.00 0.00 0.00 48 1004.9
20260509221528 28 164 0.0 8.0 0.00 0.00 0.00 49 1005.0
20260509220015 27 17 0.0 8.0 0.00 0.00 0.00 51 1005.1
20260509214612 28 320 3.2 8.0 0.00 0.00 0.00 49 1005.3
20260509213010 28 286 0.0 8.0 0.00 0.00 0.00 47 1005.5
20260509211508 27 257 0.0 14.5 0.00 0.00 0.00 49 1005.6
20260509210006 27 213 0.0 8.0 0.00 0.00 0.00 41 1005.7
20260509204504 27 317 0.0 4.8 0.00 0.00 0.00 45 1005.7
20260509203101 27 133 1.6 9.7 0.00 0.00 0.00 46 1005.8
20260509201558 27 228 1.6 6.4 0.00 0.00 0.00 50 1005.9
20260509200059 26 236 0.0 4.8 0.00 0.00 0.00 50 1006.0
20260509194551 26 220 0.0 6.4 0.00 0.00 0.00 50 1006.2
20260509193100 26 235 0.0 6.4 0.00 0.00 0.00 53 1006.5
20260509191608 26 266 1.6 4.8 0.00 0.00 0.00 49 1006.6
20260509190051 26 267 0.0 12.9 0.00 0.00 0.00 50 1006.6
20260509184544 26 309 0.0 6.4 0.00 0.00 0.00 51 1006.8
20260509183042 25 241 1.6 11.3 0.00 0.00 0.00 51 1006.8
20260509181539 25 223 0.0 8.0 0.00 0.00 0.00 50 1006.9
20260509180033 24 103 0.0 6.4 0.00 0.00 0.00 57 1006.8
20260509174529 23 202 1.6 6.4 0.00 0.00 0.00 60 1006.9
20260509173026 22 240 0.0 4.8 0.00 0.00 0.00 65 1006.9
20260509171525 20 276 0.0 4.8 0.00 0.00 0.00 75 1006.8
20260509170026 17 276 1.6 4.8 0.00 0.00 0.00 89 1006.8
20260509164512 16 276 0.0 0.0 0.00 0.00 0.00 95 1006.8
20260509163011 16 276 0.0 1.6 0.00 0.00 0.00 96 1007.0
20260509161507 15 276 0.0 1.6 0.00 0.00 0.00 95 1007.0
20260509160003 14 276 0.0 0.0 0.00 0.00 0.00 95 1007.0
20260509154559 13 276 0.0 0.0 0.00 0.00 0.00 95 1007.1
20260509153054 12 276 0.0 0.0 0.00 0.00 0.00 95 1007.0
20260509151558 12 276 0.0 0.0 0.00 0.00 0.00 95 1007.1
20260509150051 11 276 0.0 0.0 0.00 0.00 0.00 95 1007.1
20260509144552 10 276 0.0 0.0 0.00 0.00 0.00 94 1007.1
20260509143051 10 276 0.0 0.0 0.00 0.00 0.00 94 1007.0
20260509141552 10 276 0.0 0.0 0.00 0.00 0.00 94 1007.1
20260509140048 10 276 0.0 0.0 0.00 0.00 0.00 94 1007.0
20260509134556 10 276 0.0 0.0 0.00 0.00 0.00 93 1006.9
20260509133047 10 276 0.0 0.0 0.00 0.00 0.00 93 1006.8
20260509131602 10 276 0.0 0.0 0.00 0.00 0.00 93 1006.7
20260509130056 10 276 0.0 0.0 0.00 0.00 0.00 93 1006.7
20260509124548 10 276 0.0 0.0 0.00 0.00 0.00 93 1006.5
20260509123050 10 276 0.0 0.0 0.00 0.00 0.00 93 1006.5
20260509121547 10 276 0.0 0.0 0.00 0.00 0.00 93 1006.5
20260509120040 10 276 0.0 0.0 0.00 0.00 0.00 93 1006.6
20260509114538 10 276 0.0 0.0 0.00 0.00 0.00 92 1006.6
20260509113036 10 276 0.0 0.0 0.00 0.00 0.00 92 1006.7
20260509111536 10 276 0.0 0.0 0.00 0.00 0.00 92 1006.7
20260509110034 10 276 0.0 0.0 0.00 0.00 0.00 92 1006.7
20260509104537 10 276 0.0 0.0 0.00 0.00 0.00 92 1006.8
20260509103031 10 276 0.0 1.6 0.00 0.00 0.00 92 1006.9
20260509101530 10 276 0.0 0.0 0.00 0.00 0.00 91 1006.8
20260509100032 10 276 0.0 0.0 0.00 0.00 0.00 91 1006.8
20260509094525 11 276 0.0 0.0 0.00 0.00 0.00 91 1007.0
20260509093026 11 276 0.0 0.0 0.00 0.00 0.00 91 1007.0
20260509091525 11 276 0.0 0.0 0.00 0.00 0.00 91 1007.1
20260509090027 11 276 0.0 0.0 0.00 0.00 0.00 91 1007.1
20260509084519 11 276 0.0 0.0 0.00 0.00 0.00 90 1007.2
20260509083019 11 276 0.0 0.0 0.00 0.00 0.00 90 1007.2
20260509081532 11 276 0.0 0.0 0.00 0.00 0.00 90 1007.1
20260509080013 11 276 0.0 0.0 0.00 0.00 0.00 90 1007.2
20260509074512 12 276 0.0 0.0 0.00 0.00 0.00 89 1007.3
20260509073112 12 276 0.0 0.0 0.00 0.00 0.00 89 1007.3
20260509071508 12 276 0.0 0.0 0.00 0.00 0.00 88 1007.3